User: anonymous
Location: SAPM � Hemmingford
(45.0500°N, 73.5833°W)
Time: 08:20:26
(UTC-04:00)
Language:

Cosmos 1674 Rocket - Orbit

View from above orbital plane
View from above orbital plane
View from above satellite
View from above satellite

Ground track
Ground track

The orbit data is extracted from the following two-line orbital elements,

1 15945U 85069B   14209.10572067  .00000259  00000-0  28512-4 0  7127
2 15945 082.5264 040.8446 0020868 159.6370 340.1025 14.83369413564589
Epoch (UTC): 28 July 2014 02:32:14
Eccentricity: 0.0020868
inclination: 82.5264°
perigee height: 604 km
apogee height: 633 km
right ascension of ascending node: 40.8446°
argument of perigee: 159.6370°
revolutions per day: 14.83369413
mean anomaly at epoch: 340.1025°
orbit number at epoch: 56458

The dashed part of the orbit path shows where the satellite is in the earth's shadow,  

DLR